Back to catalog

STARLINK-5747

AliveCommunicationsVLEO
NORAD 55574·PAYLOAD·🇺🇸 United States

Launched Feb 12, 2023 from Cape Canaveral Space Force Station

Loading…

Next Passes (next 24 hours)

TLE

FreshSource: CelesTrak SupGP

Epoch: Sep 14, 2026, 13:28 UTC

1 55574C 23020F   26257.56159722 -.00025062  00000+0 -90782-3 0  2574
2 55574  43.0019  22.3228 0001566 267.0765 109.2319 15.27587211    10

Track STARLINK-5747 in real time with AllMySat

Download on the App Store